NOAA 16 DEB, 41067

Orbit data source: Space-Track

NOAA 16 DEB, 41067 is space debris in SSO originally from a launch on Thu, 21 Sep 2000 UTC launched from the Air Force Western Test Range (AFWTR). Debris objects in space refer to the collection of defunct objects orbiting the Earth. Examples of debris include non-operational satellites, rocket bodies, and fragments generated from explosions, collisions, or faulty payload assembly.

Loading next visibility...
NOAA 16 DEB details
Identifier
41067, 2000-055AA
Orbit
SSO
Last TLE update11 hours ago
Origin
Flag of USNOAA (US)
ManufacturerUnknown
MissionSpacecraft
Bus & MotorUnknown
MassUnknown
Launch date (UTC)
2000-09-21 (24 years ago)
Launch vehicleUnknown
Launch site
Air Force Western Test Range (AFWTR)
Object type
Payload
Rocket body
Debris
Shape & HBRUnknown
Radar Cross SectionSmall (<0.1 m²)

Expand to show TLE details & history

TLE from 11 hours ago
0 NOAA 16 DEB
1 41067U 00055AA  25025.38048249  .00002622  00000-0  13356-2 0  9992
2 41067  98.5780  73.1382 0003460 305.3579  54.7273 14.16596310472878
Epoch: 2025-01-25T09:07Z
Definitive object data (Epoch: 2025-01-25T09:07:53.687Z)
Latitude0.00006°
Longitude171.23437°
Altitude838.359 km
Speed7.434 km/s
True Right ascension04h 52m 33s
True Declination0° 00' 00"
Sunlit
Object was in full shadow at TLE epoch
Visualization TLE readout
Latitude71.86834°
Longitude18.9347°
Altitude851.613 km
Speed7.432 km/s
Apparent Right ascension10h 43m 02s
Apparent Declination39° 33' 37"
Sunlit
Object is in daylight
Visualization observer readout
Local Sidereal Time21:09:06
Azimuth341.94° N
Elevation-7.681°
Doppler factor1
Orbital elements
Apogee altitude836.539 km
Perigee altitude831.548 km
Semi-major axis7,212.181 km
Eccentricity0.000346
Inclination98.578°
RAAN73.1382°
Arg. of periapsis305.3579°
True anomaly54.75968°
Mean anomaly54.7273°
Eccentric anomaly54.74349°
Mean motion3.54359 °/min
BSTAR0.0013356
Orbital period101.59 mins
Loading maneuver chart data...
Loading historical data...
Loading historical data...
Loading historical data...
Loading historical data...
Loading historical data...
Loading historical data...
Loading historical data...

NOAA 16 DEB Visibility forecast

Observer location: undefined°, undefined

Span
Click to sort rows by Start time (UTC) header in descending order
Start Az.
Max El. time (UTC)
Max El. Az.
Max El.
End time (UTC)
End Az.
8 mins2025-01-26 02:13:06.256Z127.39° SE2025-01-26 02:17:06.256Z69.765° E29.55°2025-01-26 02:21:06.256Z9.85° NNE
8 mins2025-01-26 03:54:06.256Z212.35° SW2025-01-26 03:57:06.256Z254.416° W26.038°2025-01-26 04:02:06.256Z323.408° NNW
4 mins2025-01-26 14:35:06.256Z68.163° E2025-01-26 14:37:06.256Z92.611° ESE14.716°2025-01-26 14:39:06.256Z116.542° SE
9 mins2025-01-26 16:14:06.256Z3.883° NNE2025-01-26 16:18:06.256Z268.683° W42.141°2025-01-26 16:23:06.256Z206.008° SW
|